Regional Weather Roundup
Issued by NWS

Home | Current Version | Previous Version | Graphics & Text | Print | Product List | Glossary On
Versions: 1 2 3 4 5 6 7 8 9 10 11 12 13 14 15 16 17 18 19 20 21 22 23 24 25 26 27 28 29 30 31 32 33 34 35 36 37 38 39 40 41 42 43 44 45 46 47 48 49 50
000
ASUS43 KLOT 201703
RWRIL

ILLINOIS REGIONAL WEATHER ROUNDUP
NATIONAL WEATHER SERVICE CHICAGO/ROMEOVILLE IL
1100 AM CST MON NOV 20 2017

NOTE: "FAIR" INDICATES FEW OR NO CLOUDS BELOW 12,000 FEET WITH NO
SIGNIFICANT WEATHER AND/OR OBSTRUCTIONS TO VISIBILITY.

* THESE STATIONS ARE NOT UNDER NWS QUALITY CONTROL. THEY ALSO MAY NOT
  REPORT WEATHER SUCH AS PRECIPITATION OR FOG.

ILZ001-002-007-009-015-016-024-201800-
NORTHWEST ILLINOIS

CITY           SKY/WX    TMP DP  RH WIND       PRES   REMARKS
MOLINE         SUNNY     52  31  44 SW14G24   29.82F
STERLING*      SUNNY     48  32  53 SW8G17    29.84F
SAVANNA*       SUNNY     49  31  51 S12       29.81F
$$

ILZ003-004-008-010-011-017-018-201800-
NORTH CENTRAL ILLINOIS

CITY           SKY/WX    TMP DP  RH WIND       PRES   REMARKS
ROCKFORD       PTSUNNY   45  30  55 SW16      29.85F
FREEPORT*      SUNNY     44  32  61 SW16G25   29.82F
ROCHELLE*      SUNNY     45  32  59 SW17G23   29.85F
DE KALB*       SUNNY     45  32  61 SW20      29.86F
PERU*          SUNNY     47  29  50 SW20G29   29.87F
$$

ILZ005-006-012>014-019>023-201800-
NORTHEAST ILLINOIS

CITY           SKY/WX    TMP DP  RH WIND       PRES   REMARKS
CHICAGO-OHARE  MOSUNNY   45  28  51 SW22G29   29.87F
CHICAGO-MIDWAY MOSUNNY   47  29  49 SW22G28   29.88F
AURORA         SUNNY     46  31  55 S14G26    29.88F
LANSING*       SUNNY     45  33  62 SW18G26   29.92F
JOLIET*        SUNNY     48  32  53 SW12G22   29.91F
WAUKEGAN       SUNNY     46  29  51 SW21G30   29.83F
DUPAGE AIRPORT SUNNY     45  30  55 SW20G30   29.86F
KANKAKEE*      SUNNY     44  29  56 SW20G28   29.96F
WHEELING       SUNNY     47  30  51 SW17G25   29.87F
MORRIS*        SUNNY     46  31  56 SW22      29.89F
ROMEOVILLE*    SUNNY     46  31  56 SW20G28   29.89F
NORTHERLY ISL    N/A     46  26  46 S10         N/A
$$

LMZ740>746-201800-
SOUTHERN LAKE MICHIGAN

STATION/POSITION SKY/WX   TEMP    WIND        PRES    VSBY  WAVE
                          AIR SEA DIR/SP/G                  HT/PER
                          (F)     (DEG/KT/KT) (MB)    (MI)  (FT/S)
SOUTHERN BUOY              43 49  250/ 23/ 27 1011.9          7/ 6
HARRISON CRIB              45     220/ 23/ 25   N/A
BURNHAM HARBOR             47     200/ 11/ 17   N/A
CALUMET HARBOR             44     200/ 19/ 25 1011.9F
BURNS HARBOR               45     210/ 18/ 25 1013.5F
MICHIGAN CITY              44     180/ 22/ 25   N/A
$$

ILZ025>027-034>036-040-047-049-050-058-095>099-201800-
WEST-CENTRAL ILLINOIS

CITY           SKY/WX    TMP DP  RH WIND       PRES   REMARKS
QUINCY         SUNNY     52  31  44 S21G28    29.93F
GALESBURG*     SUNNY     52  34  51 S18G31    29.87F
MACOMB*        SUNNY     51  33  49 SW24G30   29.91F
JACKSONVILLE*  SUNNY     51  30  44 SW17G24   29.98F
PITTSFIELD*    SUNNY     53  32  45 SW15G25   29.97F
$$

ILZ028>032-037-038-041>044-048-051>054-059>061-201800-
CENTRAL ILLINOIS

CITY           SKY/WX    TMP DP  RH WIND       PRES   REMARKS
PONTIAC        SUNNY     47  32  56 SW18G25   29.94F
BLOOMINGTON    CLOUDY    46  31  55 SW25G31   29.95F
DECATUR        SUNNY     48  29  47 SW20G28   30.03F
PEORIA         CLOUDY    50  30  46 SW18G31   29.92F
LACON*         SUNNY     45  29  52 SW13G22   29.88F
LINCOLN*       SUNNY     48  32  53 S16       29.98F
SPRINGFIELD    SUNNY     51  31  46 S21G28    30.00F
TAYLORVILLE    SUNNY     47  31  54 S20G29    30.03F
$$

ILZ033-039-045-046-055>057-062-063-201800-
EAST-CENTRAL ILLINOIS

CITY           SKY/WX    TMP DP  RH WIND       PRES   REMARKS
CHAMPAIGN      SUNNY     45  31  58 S25G32    30.02F
DANVILLE*      SUNNY     43  29  59 S17G26    30.01F
RANTOUL*       CLOUDY    47  33  57 SW20G26   30.01F
MATTOON        SUNNY     44  30  57 S14G20    30.07F
PARIS*         SUNNY     44  31  61 S16G25    30.08F
$$

ILZ079-100>102-201800-
SOUTHWEST ILLINOIS

CITY           SKY/WX    TMP DP  RH WIND       PRES   REMARKS
ALTON          MOSUNNY   50  30  46 SW17      30.06F
CAHOKIA*       SUNNY     52  25  35 SW12      30.07F
SPARTA*        SUNNY     46  28  50 S14       30.12F
$$

ILZ064>066-069>071-074>076-080>082-084>086-088>090-092>094-201800-
SOUTH-CENTRAL ILLINOIS

CITY           SKY/WX    TMP DP  RH WIND       PRES   REMARKS
CARBONDALE     SUNNY     48  29  47 S12       30.16F
CAIRO*         SUNNY     44  29  55 S8        30.21F
EFFINGHAM*     SUNNY     48  30  50 S12       30.12F
MARION         MOSUNNY   45  28  53 S14       30.18F
MT. VERNON     SUNNY     47  31  53 S16       30.14F
CENTRALIA*     SUNNY     48  32  52 S14       30.12F
SALEM*         SUNNY     51  29  44 SW14      30.12F
METROPOLIS*    CLOUDY    46  28  49 SW7       30.22F
$$

ILZ067-068-072-073-078-083-087-091-201800-
SOUTHEAST ILLINOIS

CITY           SKY/WX    TMP DP  RH WIND       PRES   REMARKS
LAWRENCEVILLE  SUNNY     45  31  58 S16       30.16F
FLORA*         SUNNY     47  32  55 S13       30.14F
FAIRFIELD*     SUNNY     46  30  53 S8        30.15F
HARRISBURG*    SUNNY     46  27  47 S16       30.17F
ROBINSON*      SUNNY     45  27  50 S13       30.15F
CARMI*         SUNNY     46  29  51 S14       30.17F
$$

ABBREVIATIONS USED IN REMARKS
   TC - TEMPERATURE IN CELSIUS
  WCI - WIND CHILL INDEX
   HX - HEAT INDEX
  VSB - VISIBILITY
$$





USA.gov is the U.S. government's official web portal to all federal, state and local government web resources and services.